1390176032364,0.978840
1390176092364,0.983097
1390176152364,0.981254
1390176212365,0.988816
1390176272365,0.979568
1390176332365,0.978585
1390176392365,0.986883
1390176452364,0.980652
1390176512364,0.982005
1390176572365,0.988326
1390176632365,0.988002
1390176692365,0.979439
1390176752365,0.975040
1390176812365,0.977172
1390176872365,0.983542
1390176932365,0.990413
1390176992365,0.979419
1390177052365,0.979550
1390177112364,0.984100
1390177172364,0.986282
1390177232364,0.983573
1390177292364,0.985567
1390177352364,0.980354
1390177412364,0.985434
1390177472364,0.981210
1390177532364,0.983363
1390177592365,0.975952
1390177652365,0.990826
1390177712365,0.982607
1390177772364,0.986884
1390177832364,0.990159
1390177892365,0.983616
1390177952365,0.981127
1390178012365,0.986662
1390178072365,0.983342
1390178132365,0.985729
1390178192365,0.984353
1390178252365,0.986795
1390178312365,0.985141
1390178372365,0.985729
1390178432365,0.982764
1390178492364,0.987058
1390178552364,0.988102
1390178612364,0.978738
1390178672364,0.984428
1390178732364,0.983499
1390178792364,0.985792
1390178852364,0.979380
1390178912365,0.980416
1390178972365,0.978925
1390179032365,0.985252
1390179092365,0.979271
1390179152364,0.978270
1390179212364,0.983637
1390179272365,0.984247
1390179332365,0.992106
1390179392365,0.988333
1390179452365,0.984280
1390179512365,0.981993
1390179572365,0.982099
1390179632375,0.985781
1390179692375,0.990688
1390179752375,0.982117
1390179812375,0.987931
1390179872375,0.983845
1390179932375,0.976852
1390179992375,0.990452
1390180052375,0.986405
1390180112375,0.991119
1390180172375,0.985413
1390180232375,0.994881
1390180292375,0.988799
1390180352375,0.982268
1390180412375,0.988423
1390180472375,0.986964
1390180532375,0.978662
1390180592375,0.992817
1390180652375,0.983381
1390180712375,0.993405
1390180772375,0.991154
1390180832375,0.986693
1390180892375,0.991988
1390180952375,0.996273
1390181012375,0.992333
1390181072375,0.987416
1390181132375,0.995489
1390181192375,0.998958
1390181252375,1.00207
1390181312375,0.988431
1390181372375,0.996018
1390181432375,0.994817
1390181492375,0.988264
1390181552375,0.994927
1390181612375,0.999234
1390181672375,1.00079
1390181732375,0.998211
1390181792375,0.998469
1390181852375,0.999331
1390181912375,1.00678
1390181972375,0.998358
1390182032375,0.994461
1390182092375,0.999699
1390182152375,0.996991
1390182212375,0.993265
1390182272375,0.987548
1390182332375,1.00135
1390182392375,0.998071
1390182452375,0.991859
1390182512375,1.00029
1390182572375,0.990978
1390182632375,0.996393
1390182692375,0.981508
1390182752375,0.992047
1390182812375,0.986636
1390182872375,0.985719
1390182932375,0.980400
1390182992375,0.990418
1390183052375,0.990583
1390183112375,0.990999
1390183172375,0.986664
1390183232385,0.985078
1390183292385,0.989039
1390183352385,0.981754
1390183412385,0.989784
1390183472385,0.986507
1390183532385,0.989681
1390183592385,0.984726
1390183652385,0.981257
1390183712385,0.990758
1390183772385,0.993465
1390183832385,0.994507
1390183892385,0.995492
1390183952385,1.01849
1390184012385,1.02145
1390184072385,1.02862
1390184132385,1.02961
1390184192385,1.03502
1390184252385,1.03053
1390184312385,1.03154
1390184372385,1.04310
1390184432385,1.04307
1390184492385,1.04164
1390184552385,1.04507
1390184612385,1.04787
1390184672385,1.05233
1390184732385,1.05219
1390184792385,1.05520
1390184852385,1.05281
1390184912385,1.07074
1390184972385,1.07108
1390185032385,1.06951
1390185092385,1.07096
1390185152385,1.07168
1390185212385,1.07552
1390185272385,1.07706
1390185332385,1.07823
1390185392385,1.08603
1390185452385,1.08590
1390185512385,1.08102
1390185572385,1.08701
1390185632385,1.08375
1390185692385,1.08109
1390185752385,1.07596
1390185812385,1.07416
1390185872385,1.07243
1390185932385,1.07382
1390185992385,1.07863
1390186052385,1.07198
1390186112385,1.07192
1390186172385,1.06174
1390186232385,1.05798
1390186292385,1.06807
1390186352385,1.06620
1390186412385,1.05892
1390186472385,1.05362
1390186532385,1.06456
1390186592385,1.05646
1390186652385,1.05028
1390186712385,1.05063
1390186772385,1.04350
1390186832395,1.05039
1390186892395,1.04593
1390186952395,1.04039
1390187012395,1.03896
1390187072395,1.04724
1390187132395,1.04029
1390187192395,1.04091
1390187252395,1.03190
1390187312395,1.03598
1390187372395,1.03214
1390187432395,1.02532
1390187492395,1.02493
1390187552395,1.02142
1390187612395,1.01864
1390187672395,1.01395
1390187732395,1.01650
1390187792395,1.01575
1390187852395,1.00764
1390187912395,1.01220
1390187972395,1.01406
1390188032395,1.00919
1390188092395,1.00002
1390188152395,1.01033
1390188212395,1.00064
1390188272395,0.998795
1390188332395,0.995741
1390188392395,1.00207
1390188452395,1.00707
1390188512395,1.00640
1390188572395,0.998042
1390188632395,0.998562
1390188692395,0.994741
1390188752395,0.996299
1390188812395,1.00123
1390188872395,1.00202
1390188932395,0.999003
1390188992395,1.00308
1390189052395,0.994256
1390189112395,1.00070
1390189172395,0.991272
1390189232395,1.00452
1390189292395,1.00211
1390189352395,0.992683
1390189412395,0.998675
1390189472395,0.999471
1390189532395,0.998344
1390189592395,0.997008
1390189652395,0.994446
1390189712395,0.998987
1390189772395,0.995356
1390189832395,1.00590
1390189892395,1.00088
1390189952395,1.00090
1390190012395,1.00618
1390190072395,0.998861
1390190132395,1.00616
1390190192395,1.00109
1390190252395,0.997005
1390190312395,1.00057
1390190372395,0.989427
1390190432406,0.992191
1390190492406,0.995139
1390190552406,0.988980
1390190612406,0.987775
1390190672406,0.992126
1390190732406,0.985931
1390190792406,0.985666
1390190852406,0.988780
1390190912406,0.993335
1390190972406,0.987186
1390191032406,0.985105
1390191092406,0.994437
1390191152406,0.977353
1390191212406,0.992526
1390191272406,0.985407
1390191332406,0.992372
1390191392406,0.981378
1390191452406,0.990497
1390191512406,0.984972
1390191572406,0.993430
1390191632406,0.990882
1390191692406,0.988431
1390191752406,0.985663
1390191812406,0.983326
1390191872406,0.982629
1390191932406,0.983890
1390191992406,0.985448
1390192052406,0.983016
1390192112406,0.985308
1390192172406,0.979782
1390192232406,0.986450
1390192292406,0.982019
1390192352406,0.985846
1390192412406,0.979352
1390192472406,0.995505
1390192532406,0.988403
1390192592405,0.982155
1390192652406,0.987438
1390192712406,0.980778
1390192772406,0.977311
1390192832406,0.995325
1390192892406,0.990783
1390192952406,0.990463
1390193012406,0.989717
1390193072406,0.986560
1390193132406,0.986964
1390193192406,0.992153
1390193252406,0.986650
1390193312406,0.986447
1390193372406,0.981973
1390193432406,0.985303
1390193492406,0.986630
1390193552406,0.994719
1390193612406,0.983489
1390193672406,0.981129
1390193732406,0.984619
1390193792406,0.991290
1390193852406,0.987510
1390193912406,1.00606
1390193972406,0.999368
1390194032416,1.00541
1390194092416,1.01393
1390194152416,1.01595
1390194212416,1.02603
1390194272416,1.02501
1390194332416,1.02127
1390194392416,1.01062
1390194452416,1.01584
1390194512416,1.01618
1390194572416,1.00347
1390194632416,1.00514
1390194692416,1.01396
1390194752416,1.00953
1390194812416,1.01045
1390194872416,1.00355
1390194932416,1.00528
1390194992416,1.00896
1390195052416,1.01714
1390195112416,1.01769
1390195172416,1.01031
1390195232416,1.00816
1390195292416,1.00788
1390195352416,1.01457
1390195412416,1.00952
1390195472416,1.01465
1390195532416,1.00969
1390195592416,1.00269
1390195652416,1.00938
1390195712416,1.00544
1390195772416,1.01166
1390195832416,1.00222
1390195892416,1.00343
1390195952416,1.00637
1390196012416,0.994029
1390196072416,0.996662
1390196132416,1.00098
1390196192416,1.00554
1390196252416,0.996295
1390196312416,0.992881
1390196372416,0.988051
1390196432416,0.991618
1390196492416,0.997999
1390196552416,1.00030
1390196612416,0.998711
1390196672416,0.991025
1390196732416,0.989466
1390196792416,0.994102
1390196852416,0.995502
1390196912416,0.993513
1390196972416,0.992849
1390197032416,0.990635
1390197092416,0.976439
1390197152416,0.986038
1390197212416,0.985388
1390197272416,0.985982
1390197332416,0.988894
1390197392416,0.983819
1390197452416,0.978381
1390197512416,0.980732
1390197572416,0.987144
1390197632427,0.975472
1390197692427,0.985883
1390197752427,0.980178
1390197812427,0.979730
1390197872427,0.976901
1390197932427,0.984888
1390197992427,0.980676
1390198052427,0.980394
1390198112427,0.985463
1390198172427,0.984526
1390198232427,0.978608
1390198292427,0.987385
1390198352427,0.981488
1390198412427,0.980552
1390198472427,0.983248
1390198532427,0.987687
1390198592427,0.980951
1390198652427,0.973799
1390198712427,0.979651
1390198772427,0.976083
1390198832427,0.983129
1390198892427,0.980531
1390198952427,0.975982
1390199012427,0.984575
1390199072427,0.988795
1390199132427,0.993510
1390199192427,1.00828
1390199252427,1.02133
1390199312427,1.02492
1390199372427,1.03527
1390199432427,1.03925
1390199492427,1.04337
1390199552427,1.06017
1390199612427,1.06440
1390199672427,1.05293
1390199732427,1.05205
1390199792427,1.05857
1390199852427,1.05201
1390199912427,1.05329
1390199972427,1.05833
1390200032427,1.06531
1390200092427,1.05595
1390200152427,1.06231
1390200212427,1.06381
1390200272427,1.05684
1390200332427,1.06418
1390200392427,1.06047
1390200452427,1.06188
1390200512427,1.06020
1390200572427,1.05837
1390200632427,1.06232
1390200692427,1.06476
1390200752427,1.06564
1390200812427,1.05777
1390200872427,1.06308
1390200932427,1.05373
1390200992427,1.06113
1390201052427,1.05092
1390201112427,1.05214
1390201172427,1.04374
1390201232438,1.04384
1390201292438,1.04320
1390201352438,1.04326
1390201412438,1.03021
1390201472438,1.03615
1390201532438,1.03657
1390201592438,1.03534
1390201652438,1.03121
1390201712438,1.02779
1390201772438,1.01680
1390201832438,1.01944
1390201892438,1.01681
1390201952438,1.01855
1390202012438,1.02385
1390202072438,1.02465
1390202132438,1.02268
1390202192438,1.01897
1390202252438,1.01804
1390202312438,1.01682
1390202372438,1.01731
1390202432438,1.01804
1390202492438,1.01860
1390202552438,1.02029
1390202612438,1.01082
1390202672438,1.01012
1390202732438,1.01363
1390202792438,1.00108
1390202852438,1.00766
1390202912438,1.01176
1390202972438,1.00254
1390203032438,1.01009
1390203092438,1.00407
1390203152438,0.996496
1390203212438,1.00158
1390203272438,0.995829
1390203332438,0.999673
1390203392438,1.00426
1390203452438,1.00013
1390203512438,1.00943
1390203572438,1.00418
1390203632438,0.990303
1390203692438,0.997824
1390203752438,0.998384
1390203812438,1.00164
1390203872438,0.993919
1390203932438,0.993280
1390203992438,1.00263
1390204052438,0.994984
1390204112438,0.995825
1390204172438,0.987087
1390204232438,0.994458
1390204292438,0.982938
1390204352438,0.988780
1390204412438,0.990499
1390204472438,0.988316
1390204532438,0.988120
1390204592438,0.995194
1390204652438,0.992181
1390204712438,0.989769
1390204772438,0.991382
1390204832449,0.983596
1390204892449,0.992713
1390204952449,0.984533
1390205012449,0.993452
1390205072449,0.979842
1390205132449,0.973777
1390205192449,0.982859
1390205252449,0.981642
1390205312449,0.990107
1390205372449,0.984473
1390205432449,0.983393
1390205492449,0.979992
1390205552449,0.978304
1390205612449,0.978842
1390205672449,0.986531
1390205732449,0.986959
1390205792449,0.983370
1390205852449,0.978460
1390205912449,0.982776
1390205972449,0.981695
1390206032449,0.975975
1390206092449,0.980971
1390206152449,0.978119
1390206212449,0.986704
1390206272449,0.981959
1390206332449,0.983594
1390206392449,0.986948
1390206452449,0.973386
1390206512449,0.979406
1390206572449,0.977211
1390206632449,0.980510
1390206692449,0.981970
1390206752449,0.984941
1390206812449,0.972309
1390206872449,0.983661
1390206932449,0.987598
1390206992449,0.987599
1390207052449,0.976664
1390207112449,0.982517
1390207172449,0.979248
1390207232449,0.974318
1390207292449,0.990023
1390207352449,0.986170
1390207412449,0.988171
1390207472449,0.983846
1390207532449,0.978508
1390207592449,0.990789
1390207652449,0.983021
1390207712449,0.987448
1390207772449,0.983294
1390207832449,0.994659
1390207892449,0.984532
1390207952449,0.989477
1390208012449,0.982597
1390208072449,0.986159
1390208132449,0.982345
1390208192449,0.992290
1390208252449,0.991548
1390208312449,0.987101
1390208372449,0.983367
1390208432460,0.990112
1390208492460,0.990230
1390208552460,0.987386
1390208612460,0.989933
1390208672460,0.994498
1390208732460,0.986875
1390208792460,0.995757
1390208852460,0.996654
1390208912460,0.992978
1390208972460,0.991544
1390209032460,0.998657
1390209092460,0.997684
1390209152460,0.989002
1390209212460,0.993992
1390209272460,1.00002
1390209332460,0.987553
1390209392460,0.996605
1390209452460,0.988828
1390209512460,0.991933
1390209572460,0.989645
1390209632460,0.997327
1390209692460,0.993829
1390209752460,0.999207
1390209812460,0.988479
1390209872460,0.986830
1390209932460,0.991945
1390209992460,0.994572
1390210052460,0.990602
1390210112460,0.988232
1390210172460,0.986369
1390210232460,0.991357
1390210292460,0.996027
1390210352460,0.994277
1390210412460,0.993927
1390210472460,0.991682
1390210532460,0.992469
1390210592460,1.00015
1390210652460,0.991391
1390210712460,0.999624
1390210772460,0.992975
1390210832460,0.989830
1390210892460,0.984144
1390210952460,0.989835
1390211012460,0.990715
1390211072460,0.990847
1390211132460,0.990771
1390211192460,0.994193
1390211252460,0.986615
1390211312460,0.989722
1390211372460,0.988574
1390211432460,0.992351
1390211492460,0.991076
1390211552460,0.991535
1390211612460,0.989834
1390211672460,0.993999
1390211732460,0.980715
1390211792460,0.993220
1390211852460,0.988773
1390211912460,0.992867
1390211972460,0.990173
1390212032471,0.990478
1390212092471,0.985943
1390212152471,0.992662
1390212212471,0.982333
1390212272471,0.987056
1390212332471,0.990656
1390212392471,0.993601
1390212452471,0.994514
1390212512471,0.992115
1390212572471,0.988100
1390212632471,0.988916
1390212692471,0.995186
1390212752471,0.999201
1390212812471,0.993237
1390212872471,0.991096
1390212932471,0.994524
1390212992471,0.993188
1390213052471,0.996155
1390213112471,0.998075
1390213172471,1.00711
1390213232471,1.00065
1390213292471,0.997636
1390213352471,0.992239
1390213412471,0.990755
1390213472471,0.996862
1390213532471,1.00354
1390213592471,0.992773
1390213652471,0.993448
1390213712471,0.986589
1390213772471,0.999421
1390213832471,1.00110
1390213892471,1.00185
1390213952471,0.996616
1390214012471,1.00012
1390214072471,0.996367
1390214132471,0.995910
1390214192471,0.997047
1390214252471,1.00264
1390214312471,0.994353
1390214372471,0.999208
1390214432471,0.983714
1390214492471,0.994288
1390214552471,0.996237
1390214612471,0.988455
1390214672471,0.991781
1390214732471,0.996344
1390214792471,0.990660
1390214852471,0.994331
1390214912471,0.994375
1390214972471,0.988650
1390215032471,0.991797
1390215092471,0.994080
1390215152471,0.986774
1390215212471,0.994391
1390215272471,0.996267
1390215332471,0.990987
1390215392471,0.989291
1390215452471,0.991256
1390215512471,1.00469
1390215572471,0.994158
1390215632482,0.988027
1390215692482,0.986081
1390215752482,0.993661
1390215812482,0.992575
1390215872482,0.992042
1390215932482,1.00309
1390215992482,0.990168
1390216052482,0.987214
1390216112482,0.992987
1390216172482,0.989696
1390216232482,0.997322
1390216292482,1.00014
1390216352482,0.998549
1390216412482,0.999298
1390216472482,0.994422
1390216532482,0.994054
1390216592482,0.994908
1390216652482,1.00022
1390216712482,0.999580
1390216772482,1.00263
1390216832482,1.00581
1390216892482,1.00334
1390216952482,1.00530
1390217012482,1.01531
1390217072482,1.00831
1390217132482,1.00082
1390217192482,1.01357
1390217252482,1.00764
1390217312482,1.01024
1390217372482,1.01590
1390217432482,1.01320
1390217492482,1.00258
1390217552482,1.00418
1390217612482,1.00559
1390217672482,1.00685
1390217732482,1.01171
1390217792482,1.00256
1390217852482,1.00658
1390217912482,0.995048
1390217972482,0.995454
1390218032482,0.996986
1390218092482,1.00832
1390218152482,0.997182
1390218212482,1.00236
1390218272482,0.990143
1390218332482,1.00402
1390218392482,0.983807
1390218452482,0.998377
1390218512482,1.00276
1390218572482,1.00182
1390218632482,1.00132
1390218692482,0.995358
1390218752482,0.990360
1390218812482,0.995092
1390218872482,0.996306
1390218932482,1.00014
1390218992482,0.989474
1390219052482,0.993803
1390219112482,0.993261
1390219172482,0.991915
1390219232494,0.999190
1390219292494,0.998898
1390219352494,1.00282
1390219412494,0.999254
1390219472494,1.00220
1390219532494,0.998757
1390219592494,1.00166
1390219652494,0.999025
1390219712494,1.00441
1390219772494,0.993364
1390219832494,1.00533
1390219892494,1.00364
1390219952494,1.00056
1390220012494,1.00099
1390220072494,0.994866
1390220132494,0.997947
1390220192494,1.01035
1390220252494,0.997064
1390220312494,0.993412
1390220372494,0.996976
1390220432494,0.999981
1390220492494,0.999519
1390220552494,0.996061
1390220612494,0.998057
1390220672494,0.998753
1390220732494,1.00062
1390220792494,1.00138
1390220852494,1.00145
1390220912494,0.998879
1390220972494,0.998894
1390221032494,1.00272
1390221092494,1.00184
1390221152494,1.00849
1390221212494,1.00851
1390221272494,1.00740
1390221332494,0.995625
1390221392494,1.01643
1390221452494,1.00296
1390221512494,0.997399
1390221572494,1.00706
1390221632494,0.994720
1390221692494,0.995058
1390221752494,0.996826
1390221812494,1.00237
1390221872494,0.997960
1390221932494,0.996374
1390221992494,1.00533
1390222052494,1.00721
1390222112494,0.998133
1390222172494,1.00516
1390222232494,1.00552
1390222292494,0.997883
1390222352494,1.00451
1390222412494,1.00307
1390222472494,0.997504
1390222532494,1.00931
1390222592494,0.992141
1390222652494,0.999376
1390222712494,0.993053
1390222772494,0.998117
1390222832505,1.00480
1390222892505,1.00192
1390222952505,1.00285
1390223012505,0.999535
1390223072505,1.00186
1390223132505,1.00117
1390223192505,0.999525
1390223252505,1.00259
1390223312505,0.996662
1390223372505,1.00242
1390223432505,1.00779
1390223492505,1.00905
1390224032505,1.00492
1390224092505,1.01305
1390224152505,1.00240
1390224212505,1.00225
1390224272505,0.995882
1390224332505,1.00728
1390224392505,1.00279
1390224452505,1.00211
1390224512505,1.01177
1390224572505,0.993981
1390224632505,1.00173
1390224692505,1.00187
1390224752505,0.998241
1390224812505,0.998286
1390224872505,0.998235
1390224932505,1.00154
1390224992505,1.00218
1390225052505,0.994051
1390225112505,1.00186
1390225172505,1.00321
1390225232505,1.00015
1390225292505,0.992920
1390225352505,0.987076
1390225412505,0.993192
1390225472505,0.993939
1390225532505,1.00080
1390225592505,0.988928
1390225652505,0.984265
1390225712505,0.991539
1390225772505,0.988749
1390225832505,0.987243
1390225892505,0.993561
1390225952505,0.990442
1390226012505,0.991575
1390226072505,0.992018
1390226132505,0.993752
1390226192505,0.993632
1390226252505,0.992074
1390226312505,0.994314
1390226372505,1.00093
1390226432516,1.00406
1390226492516,1.00167
1390226552516,0.990966
1390226612516,0.990532
1390226672516,0.994125
1390226732516,0.992485
1390226792516,0.996849
1390226852516,0.989336
1390226912516,0.990799
1390226972516,0.996091
1390227032516,1.03967
1390227092516,0.991126
1390227152516,0.996807
1390227212516,0.997853
1390227272516,0.993511
1390227332516,1.00534
1390227392516,1.00605
1390227452516,1.00347
1390227512516,1.00511
1390227572516,1.00609
1390227632516,1.01221
1390227692516,1.01579
1390227752516,1.00667
1390227812516,1.01314
1390227872516,1.01124
1390227932516,1.00688
1390227992516,1.01301
1390228052516,1.00697
1390228112516,1.00461
1390228172516,1.00080
1390228232516,1.00945
1390228292516,1.00595
1390228352516,1.00056
1390228412516,1.00676
1390228472516,1.00712
1390228532516,1.00625
1390228592516,1.00428
1390228652516,1.00410
1390228712516,0.996732
1390228772516,1.00285
1390228832516,1.00336
1390228892516,0.998880
1390228952516,0.997710
1390229012516,0.996012
1390229072516,0.999769
1390229132516,0.994610
1390229192516,0.999727
1390229252516,1.00290
1390229312516,1.00225
1390229372516,1.00126
1390229432516,1.00754
1390229492516,1.00433
1390229552516,1.01064
1390229612516,1.00342
1390229672516,1.01248
1390229732516,1.01390
1390229792516,1.01492
1390229852516,1.01611
1390229912516,1.01257
1390229972516,1.02153
1390230032527,1.01300
1390230092527,1.03099
1390230152527,1.02476
1390230212527,1.03531
1390230272527,1.03045
1390230332527,1.02741
1390230392527,1.02229
1390230452527,1.02544
1390230512527,1.02494
1390230572527,1.02765
1390230632527,1.02410
1390230692527,1.02492
1390230752527,1.02594
1390230812527,1.02358
1390230872527,1.01612
1390230932527,1.01375
1390230992527,1.01269
1390231052527,1.00995
1390231112527,1.01532
1390231172527,1.02465
1390231232527,1.01166
1390231292527,1.01051
1390231352527,1.00560
1390231412527,1.01271
1390231472527,1.01348
1390231532527,1.01104
1390231592527,1.00544
1390231652527,1.01332
1390231712527,1.01018
1390231772527,1.01408
1390231832527,1.01464
1390231892527,1.00538
1390231952527,1.00476
1390232012527,1.00375
1390232072527,1.01157
1390232132527,0.997171
1390232192527,1.00915
1390232252527,1.01104
1390232312527,1.01032
1390232372527,1.00979
1390232432527,1.00067
1390232492527,1.01029
1390232552527,1.01768
1390232612527,1.00195
1390232672527,1.00996
1390232732527,1.00739
1390232792527,1.02330
1390232852527,1.01425
1390232912527,1.02079
1390232972527,1.02093
1390233032527,1.01543
1390233092527,1.01433
1390233152527,1.01834
1390233212527,1.01819
1390233272527,1.01084
1390233332527,1.02473
1390233392527,1.01687
1390233452527,1.01440
1390233512527,1.02130
1390233572527,1.02316
1390233632538,1.00892
1390233692538,1.01263
1390233752538,1.00830
1390233812538,1.02220
1390233872538,1.01531
1390233932538,1.01490
1390233992538,1.01387
1390234052538,1.01868
1390234112538,1.01713
1390234172538,1.01592
1390234232538,1.01604
1390234292538,1.01154
1390234352538,1.00508
1390234412538,1.01553
1390234472538,1.00703
1390234532538,1.01440
1390234592538,1.00489
1390234652538,1.00712
1390234712538,1.00584
1390234772538,1.00690
1390234832538,1.00456
1390234892538,1.01331
1390234952538,1.00367
1390235012538,0.998431
1390235072538,1.00703
1390235132538,0.995369
1390235192538,0.997215
1390235252538,1.00525
1390235312538,1.00356
1390235372538,1.00032
1390235432538,1.00008
1390235492538,0.993668
1390235552538,1.00252
1390235612538,0.999430
1390235672538,1.00252
1390235732538,0.995458
1390235792538,1.00189
1390235852538,1.00549
1390235912538,0.997378
1390235972538,1.00249
1390236032538,0.995899
1390236092538,1.00370
1390236152538,0.999080
1390236212538,0.997965
1390236272538,0.996555
1390236332538,0.986582
1390236392538,0.994876
1390236452538,0.995712
1390236512538,0.995027
1390236572538,0.995175
1390236632538,0.997135
1390236692538,1.00002
1390236752538,0.997667
1390236812538,1.00309
1390236872538,0.998267
1390236932538,1.00219
1390236992538,0.997782
1390237052538,0.988901
1390237112538,0.992584
1390237172538,0.997948
1390237232549,0.997034
1390237292549,0.993785
1390237352549,1.00365
1390237412549,0.996324
1390237472549,1.00457
1390237532549,0.998556
1390237592549,0.996303
1390237652549,0.997584
1390237712549,0.994197
1390237772549,0.992968
1390237832549,0.996213
1390237892549,1.00153
1390237952549,1.00138
1390238012549,0.999005
1390238072549,0.996003
1390238132549,0.996758
1390238192549,1.00007
1390238252549,1.00688
1390238312549,0.999356
1390238372549,0.999760
1390238432549,0.999357
1390238492549,0.999787
1390238552549,0.990278
1390238612549,0.996304
1390238672549,0.998989
1390238732549,0.989466
1390238792549,0.999673
1390238852549,0.996150
1390238912549,1.00328
1390238972549,0.991158
1390239032549,0.997769
1390239092549,0.997885
1390239152549,0.999192
1390239212549,1.00217
1390239272549,1.00366
1390239332549,0.997631
1390239392549,0.997359
1390239452549,1.00298
1390239512549,1.00280
1390239572549,0.997445
1390239632549,1.01131
1390239692549,1.01783
1390239752549,1.00908
1390239812549,1.01712
1390239872549,1.00997
1390239932549,1.01586
1390239992549,1.01851
1390240052549,1.00815
1390240112549,1.02426
1390240172549,1.01866
1390240232549,1.02545